Terug naar catalogus

STARLINK-5739

ActiefCommunicatieVLEO
NORAD 55571·PAYLOAD·🇺🇸 United States

Gelanceerd Feb 12, 2023 vanaf Cape Canaveral Space Force Station

Loading…

Volgende Passages (komende 24 uur)

TLE

VersSource: CelesTrak SupGP

Epoch: Sep 15, 2026, 01:58 UTC

1 55571C 23020C   26258.08243056 -.00026679  00000+0 -96638-3 0  2585
2 55571  43.0043  19.0144 0001545 271.5352 247.9804 15.27589779    13

Volg STARLINK-5739 in realtime met AllMySat

Download on the App Store